When you browse on this site, cookies collect data to enhance your experience and personalize the content and advertising you see.
Visit our Privacy Policy to learn more. By continuing to use the site, you agree to this use of cookies and data.
  • In Sweden
  • List of Countries
  • For 7 days
  • Water Temperature
  • Satellite Maps
  • Weather Map
  • Weather Widgets
  • user-avatar
    Login

    Hourly Weather Sofia

    Today, 19 November, Monday

    Time Temperature Precipitation Wind Pressure Humidity
    00:00 +1°C° 1 mm 2 mps 707 mmHg 94%
    01:00 +1°C° 1 mm 2 mps 707 mmHg 94%
    02:00 +2°C° 0 mm 1 mps 706 mmHg 93%
    03:00 +2°C° 0.4 mm 1 mps 706 mmHg 93%
    04:00 +2°C° 0.4 mm 1 mps 706 mmHg 93%
    05:00 +2°C° 0.4 mm 1 mps 706 mmHg 93%
    06:00 +1°C° 0.1 mm 1 mps 706 mmHg 93%
    07:00 +1°C° 0.1 mm 1 mps 706 mmHg 93%
    08:00 +1°C° 0 mm 1 mps 706 mmHg 91%
    09:00 +2°C° 0 mm 1 mps 707 mmHg 88%
    10:00 +4°C° 0 mm 1 mps 707 mmHg 85%
    11:00 +6°C° 0 mm 1 mps 708 mmHg 81%
    12:00 +6°C° 0 mm 1 mps 708 mmHg 80%
    13:00 +7°C° 0 mm 1 mps 708 mmHg 78%
    14:00 +8°C° 0 mm 1 mps 708 mmHg 77%
    15:00 +7°C° 0 mm 1 mps 708 mmHg 80%
    16:00 +5°C° 0 mm 0 mps 708 mmHg 83%
    17:00 +3°C° 0 mm 0 mps 708 mmHg 87%
    18:00 +3°C° 0 mm 0 mps 709 mmHg 86%
    19:00 +4°C° 0 mm 1 mps 709 mmHg 85%
    20:00 +4°C° 0 mm 1 mps 709 mmHg 85%
    21:00 +4°C° 0 mm 1 mps 710 mmHg 84%
    22:00 +4°C° 0 mm 1 mps 710 mmHg 83%
    23:00 +4°C° 0 mm 1 mps 710 mmHg 82%

    Tomorrow, 20 November, Tuesday

    Time Temperature Precipitation Wind Pressure Humidity
    00:00 +4°C° 0 mm 1 mps 711 mmHg 82%
    01:00 +4°C° 0 mm 1 mps 711 mmHg 82%
    02:00 +3°C° 0 mm 2 mps 711 mmHg 82%
    03:00 +3°C° 0 mm 2 mps 711 mmHg 83%
    04:00 +4°C° 0 mm 2 mps 711 mmHg 84%
    05:00 +4°C° 0 mm 2 mps 711 mmHg 84%
    06:00 +4°C° 0.1 mm 2 mps 711 mmHg 86%
    07:00 +5°C° 0.1 mm 2 mps 711 mmHg 87%
    08:00 +5°C° 0.1 mm 2 mps 711 mmHg 89%
    09:00 +6°C° 0.5 mm 2 mps 712 mmHg 88%
    10:00 +7°C° 0.5 mm 2 mps 712 mmHg 88%
    11:00 +7°C° 0.5 mm 2 mps 712 mmHg 87%
    12:00 +8°C° 0.2 mm 2 mps 712 mmHg 86%
    13:00 +9°C° 0.2 mm 2 mps 711 mmHg 86%
    14:00 +9°C° 0.2 mm 2 mps 711 mmHg 86%
    15:00 +8°C° 0.5 mm 2 mps 711 mmHg 88%
    16:00 +8°C° 0.5 mm 2 mps 710 mmHg 91%
    17:00 +7°C° 0.5 mm 2 mps 710 mmHg 94%
    18:00 +7°C° 0.4 mm 2 mps 710 mmHg 94%
    19:00 +7°C° 0.4 mm 2 mps 710 mmHg 94%
    20:00 +7°C° 0.4 mm 2 mps 710 mmHg 95%
    21:00 +7°C° 0.2 mm 1 mps 710 mmHg 95%
    22:00 +7°C° 0.2 mm 1 mps 710 mmHg 95%
    23:00 +7°C° 0.2 mm 1 mps 710 mmHg 95%

    Day after tomorrow, 21 November, Wednesday

    Time Temperature Precipitation Wind Pressure Humidity
    00:00 +7°C° 0.3 mm 1 mps 709 mmHg 95%
    01:00 +7°C° 0.3 mm 1 mps 709 mmHg 95%
    02:00 +7°C° 0.3 mm 1 mps 709 mmHg 96%
    03:00 +7°C° 0.4 mm 1 mps 709 mmHg 96%
    04:00 +7°C° 0.4 mm 1 mps 708 mmHg 96%
    05:00 +7°C° 0.4 mm 1 mps 708 mmHg 96%
    06:00 +7°C° 0.4 mm 1 mps 708 mmHg 96%
    07:00 +7°C° 0.4 mm 1 mps 708 mmHg 96%
    08:00 +7°C° 0.4 mm 1 mps 708 mmHg 95%
    09:00 +7°C° 0.9 mm 1 mps 708 mmHg 94%
    10:00 +7°C° 0.9 mm 1 mps 708 mmHg 92%
    11:00 +8°C° 0.9 mm 1 mps 708 mmHg 91%
    12:00 +7°C° 0.8 mm 2 mps 708 mmHg 91%
    13:00 +6°C° 0.8 mm 2 mps 708 mmHg 91%
    14:00 +6°C° 0.8 mm 2 mps 708 mmHg 90%
    15:00 +6°C° 0.6 mm 2 mps 708 mmHg 91%
    16:00 +5°C° 0.6 mm 2 mps 708 mmHg 92%
    17:00 +5°C° 0.6 mm 2 mps 708 mmHg 93%
    18:00 +5°C° 0.5 mm 2 mps 709 mmHg 93%
    19:00 +5°C° 0.5 mm 2 mps 709 mmHg 92%
    20:00 +4°C° 0.5 mm 2 mps 710 mmHg 92%
    21:00 +5°C° 0.3 mm 1 mps 710 mmHg 92%
    22:00 +5°C° 0.3 mm 1 mps 711 mmHg 92%
    23:00 +5°C° 0.3 mm 1 mps 711 mmHg 92%

    22 November, Thursday

    Time Temperature Precipitation Wind Pressure Humidity
    00:00 +4°C° 0.2 mm 1 mps 711 mmHg 92%
    01:00 +4°C° 0.2 mm 1 mps 712 mmHg 92%
    02:00 +4°C° 0.2 mm 1 mps 712 mmHg 92%
    03:00 +4°C° 0.2 mm 1 mps 712 mmHg 92%
    04:00 +4°C° 0.2 mm 1 mps 712 mmHg 92%
    05:00 +4°C° 0.2 mm 1 mps 712 mmHg 91%
    06:00 +4°C° 0.2 mm 1 mps 712 mmHg 91%
    07:00 +4°C° 0.2 mm 1 mps 713 mmHg 91%
    08:00 +4°C° 0.2 mm 1 mps 713 mmHg 90%
    09:00 +4°C° 0.2 mm 1 mps 713 mmHg 88%
    10:00 +5°C° 0.2 mm 1 mps 714 mmHg 85%
    11:00 +6°C° 0.2 mm 1 mps 714 mmHg 82%
    12:00 +6°C° 0.2 mm 1 mps 714 mmHg 82%
    13:00 +6°C° 0.2 mm 1 mps 714 mmHg 82%
    14:00 +7°C° 0.2 mm 1 mps 714 mmHg 81%
    15:00 +6°C° 0.2 mm 1 mps 714 mmHg 84%
    16:00 +5°C° 0.2 mm 1 mps 714 mmHg 87%
    17:00 +5°C° 0.2 mm 1 mps 714 mmHg 89%
    18:00 +5°C° 0.1 mm 1 mps 714 mmHg 90%
    19:00 +4°C° 0.1 mm 1 mps 715 mmHg 91%
    20:00 +4°C° 0.1 mm 1 mps 715 mmHg 92%
    21:00 +4°C° 0.1 mm 1 mps 715 mmHg 92%
    22:00 +4°C° 0.1 mm 1 mps 716 mmHg 93%
    23:00 +4°C° 0.1 mm 1 mps 716 mmHg 93%

    23 November, Friday

    Time Temperature Precipitation Wind Pressure Humidity
    00:00 +4°C° 0.1 mm 1 mps 716 mmHg 93%
    01:00 +3°C° 0.1 mm 1 mps 716 mmHg 93%
    02:00 +3°C° 0.1 mm 1 mps 716 mmHg 94%
    03:00 +3°C° 0 mm 1 mps 716 mmHg 94%
    04:00 +3°C° 0 mm 1 mps 716 mmHg 94%
    05:00 +3°C° 0 mm 1 mps 717 mmHg 94%
    06:00 +3°C° 0 mm 1 mps 717 mmHg 93%
    07:00 +3°C° 0 mm 1 mps 717 mmHg 93%
    08:00 +3°C° 0 mm 1 mps 718 mmHg 93%
    09:00 +4°C° 0 mm 1 mps 718 mmHg 89%
    10:00 +5°C° 0 mm 1 mps 718 mmHg 85%
    11:00 +6°C° 0 mm 1 mps 719 mmHg 80%
    12:00 +7°C° 0 mm 1 mps 719 mmHg 79%
    13:00 +7°C° 0 mm 1 mps 718 mmHg 78%
    14:00 +6°C° 0 mm 2 mps 718 mmHg 77%
    15:00 +6°C° 0 mm 1 mps 718 mmHg 81%
    16:00 +6°C° 0 mm 1 mps 718 mmHg 84%
    17:00 +5°C° 0 mm 1 mps 718 mmHg 88%
    18:00 +4°C° 0 mm 1 mps 718 mmHg 89%
    19:00 +3°C° 0 mm 1 mps 719 mmHg 91%
    20:00 +3°C° 0 mm 1 mps 719 mmHg 92%
    21:00 +2°C° 0 mm 1 mps 719 mmHg 91%
    22:00 +2°C° 0 mm 1 mps 719 mmHg 91%
    23:00 +2°C° 0 mm 1 mps 719 mmHg 90%

    24 November, Saturday

    Time Temperature Precipitation Wind Pressure Humidity
    00:00 +2°C° 0 mm 1 mps 719 mmHg 89%
    01:00 +2°C° 0 mm 1 mps 719 mmHg 89%
    02:00 +1°C° 0 mm 1 mps 719 mmHg 88%
    03:00 +1°C° 0 mm 1 mps 719 mmHg 87%
    04:00 +1°C° 0 mm 1 mps 719 mmHg 86%
    05:00 +1°C° 0 mm 1 mps 719 mmHg 86%
    06:00 +1°C° 0 mm 1 mps 718 mmHg 85%
    07:00 +1°C° 0 mm 1 mps 718 mmHg 84%
    08:00 +1°C° 0 mm 1 mps 718 mmHg 83%
    09:00 +4°C° 0 mm 1 mps 719 mmHg 77%
    10:00 +6°C° 0 mm 1 mps 719 mmHg 71%
    11:00 +8°C° 0 mm 1 mps 719 mmHg 65%
    12:00 +8°C° 0 mm 1 mps 718 mmHg 63%
    13:00 +9°C° 0 mm 1 mps 718 mmHg 62%
    14:00 +10°C° 0 mm 1 mps 717 mmHg 60%
    15:00 +8°C° 0 mm 1 mps 717 mmHg 65%
    16:00 +7°C° 0 mm 1 mps 717 mmHg 70%
    17:00 +6°C° 0 mm 1 mps 716 mmHg 75%
    18:00 +5°C° 0 mm 1 mps 716 mmHg 76%
    19:00 +5°C° 0 mm 1 mps 716 mmHg 77%
    20:00 +5°C° 0 mm 1 mps 716 mmHg 78%
    21:00 +5°C° 0 mm 1 mps 716 mmHg 78%
    22:00 +5°C° 0 mm 1 mps 716 mmHg 78%
    23:00 +4°C° 0 mm 1 mps 716 mmHg 78%
    Show more